Weather History for Truckee-Tahoe, CA

Change the Weather History Date:

Saturday, March 3, 2012

  Actual Average Record
Temperature  
Mean Temperature 30 °F -  
Max Temperature 51 °F 41 °F 59 °F (1986)
Min Temperature 8 °F 19 °F -13 °F (1951)
Degree Days  
Heating Degree Days 36    
Moisture  
Dew Point 12 °F    
Average Humidity 78    
Maximum Humidity 93    
Minimum Humidity 32    
Precipitation  
Precipitation 0.00 in - - ()
Snow  
Snow 0.00 in - - ()
Snow Depth 3.00 in    
Sea Level Pressure  
Sea Level Pressure 30.46 in    
Wind  
Wind Speed 1 mph (ENE)    
Max Wind Speed 6 mph    
Max Gust Speed -    
Visibility 8 miles    
Events Fog    
Averages and records for this station are not official NWS values.
T = Trace of Precipitation, MM = Missing Value Source: NWS Daily Summary

Daily Weather History Graph

Daily Weather History Graph

Search for Another Location

Airport:

Trip Planner

Search our weather history database for the weather conditions in past years. The results will help you decide how hot, cold, wet, or windy it might be!

Date:

Astronomy

Mar. 03, 2012 Rise Set
Actual Time 6:29 AM PST 5:55 PM PST
Civil Twilight 6:02 AM PST 6:22 PM PST
Nautical Twilight 5:31 AM PST 6:53 PM PST
Astronomical Twilight 5:00 AM PST 7:24 PM PST
Moon 1:12 PM PST (3/3) 3:09 AM PST (3/3)
Length of Visible Light 12h 19m
Length of Day
11h 26m
Waxing Gibbous, 76% of the Moon is Illuminated
Mar 3
Waxing Gibbous
Mar 8
Full
Mar 14
Last Quarter
Mar 22
New
Mar 30
First Quarter

Hourly Weather History & Observations

Time (PST) Temp. Windchill Dew Point Humidity Pressure Visibility Wind Dir Wind Speed Gust Speed Precip Events Conditions
12:15 AM 12.2 °F 6.1 °F 10.4 °F 92% 30.45 in 10.0 mi SE 3.5 mph - N/A   Clear
12:35 AM 14.0 °F - 10.4 °F 86% 30.45 in 10.0 mi Calm Calm - N/A   Clear
12:55 AM 15.8 °F 10.2 °F 12.2 °F 86% 30.46 in 10.0 mi ESE 3.5 mph - N/A   Clear
1:15 AM 10.4 °F 4.0 °F 8.6 °F 92% 30.46 in 10.0 mi SW 3.5 mph - N/A   Clear
1:35 AM 15.8 °F - 14.0 °F 93% 30.46 in 10.0 mi Calm Calm - N/A   Clear
1:55 AM 12.2 °F - 10.4 °F 92% 30.46 in 10.0 mi Calm Calm - N/A   Clear
2:15 AM 14.0 °F - 10.4 °F 86% 30.46 in 10.0 mi Calm Calm - N/A   Clear
2:35 AM 14.0 °F - 12.2 °F 93% 30.45 in 10.0 mi Calm Calm - N/A   Clear
2:55 AM 12.2 °F - 10.4 °F 92% 30.46 in 10.0 mi Calm Calm - N/A   Clear
3:15 AM 8.6 °F - 6.8 °F 92% 30.46 in 1.5 mi Calm Calm - N/A   Clear
3:35 AM 8.6 °F - 5.0 °F 85% 30.46 in 3.0 mi Calm Calm - N/A   Clear
3:55 AM 14.0 °F - 10.4 °F 86% 30.46 in 10.0 mi Calm Calm - N/A   Clear
4:15 AM 8.6 °F - 6.8 °F 92% 30.47 in 0.2 mi Calm Calm - N/A Fog Light Freezing Fog
4:35 AM 10.4 °F - 6.8 °F 85% 30.47 in 4.0 mi Calm Calm - N/A   Clear
4:55 AM 10.4 °F - 6.8 °F 85% 30.47 in 10.0 mi Calm Calm - N/A   Clear
5:15 AM 8.6 °F - 6.8 °F 92% 30.47 in 0.8 mi Calm Calm - N/A   Mist
5:35 AM 12.2 °F - 10.4 °F 92% 30.47 in 10.0 mi Calm Calm - N/A   Clear
6:45 AM 8.6 °F - 6.8 °F 92% 30.49 in 10.0 mi Calm Calm - N/A   Clear
7:45 AM 12.2 °F 6.1 °F 8.6 °F 85% 30.49 in 10.0 mi South 3.5 mph - N/A   Clear
8:45 AM 17.6 °F - 15.8 °F 93% 30.49 in - Calm Calm - N/A   Clear
9:50 AM 24.8 °F - 19.4 °F 80% 30.48 in 10.0 mi Calm Calm - N/A   Clear
10:45 AM 32.0 °F - 17.6 °F 55% 30.47 in 10.0 mi Calm Calm - N/A   Clear
11:55 AM 39.2 °F - 19.4 °F 45% 30.45 in 10.0 mi Calm Calm - N/A   Clear
12:45 PM 44.6 °F - 21.2 °F 39% 30.43 in 10.0 mi Calm Calm - N/A   Clear
1:50 PM 50.0 °F - 21.2 °F 32% 30.40 in 10.0 mi North 5.8 mph - N/A   Clear
2:55 PM 51.8 °F - 23.0 °F 33% 30.38 in 10.0 mi North 3.5 mph - N/A   Clear
4:55 PM 50.0 °F - 24.8 °F 37% 30.37 in 10.0 mi North 5.8 mph - N/A   Clear